Regional Weather Roundup
Issued by NWS Green Bay, WI

Home | Current Version | Previous Version | Text Only | Print | Product List | Glossary On
Versions: 1 2 3 4 5 6 7 8 9 10 11 12 13 14 15 16 17 18 19 20 21 22 23 24 25 26 27 28 29 30 31 32 33 34 35 36 37 38 39 40 41 42 43 44 45 46 47 48 49 50
000
ASUS43 KGRB 170759
RWRGRB

NORTH-CENTRAL AND NORTHEAST WISCONSIN REGIONAL WEATHER ROUNDUP
NATIONAL WEATHER SERVICE GREEN BAY WI
300 AM CDT THU APR 17 2014

WIZ005-009-010>012-018-019-170900-
NORTH CENTRAL WISCONSIN

CITY           SKY/WX    TMP DP  RH WIND       PRES   REMARKS
IRONWOOD       CLOUDY    30  27  86 E9        30.03F
MANITOWISH WTR NOT AVBL
ARBOR VITAE    NOT AVBL
EAGLE RIVER    NOT AVBL
LAND O LAKES   NOT AVBL
RHINELANDER    SNOW      30  28  92 E17       30.05F VSB 1/2
PHILLIPS       NOT AVBL
ANTIGO         NOT AVBL
TOMAHAWK       NOT AVBL
MERRILL        NOT AVBL
$$

WIZ013-073-170900-
NORTHEAST WISCONSIN

CITY           SKY/WX    TMP DP  RH WIND       PRES   REMARKS
IRON MOUNTAIN  LGT SNOW  30  27  88 E10G17    30.14F FOG
MARINETTE      CLOUDY    36  28  75 SE13      30.17F
$$

WIZ017-030-035>037-045-170900-
CENTRAL WISCONSIN

CITY           SKY/WX    TMP DP  RH WIND       PRES   REMARKS
MEDFORD        NOT AVBL
WAUSAU         LGT SNOW  33  31  92 E18G29    29.98F FOG
MOSINEE        NOT AVBL
MARSHFIELD     CLOUDY    39  30  70 SE14      29.96F
WISC RAPIDS    CLOUDY    41  28  60 SE9       29.99F
STEVENS POINT  NOT AVBL
WAUPACA        NOT AVBL
SHAWANO        NOT AVBL
CLINTONVILLE   NOT AVBL
$$

WIZ038-039-048-051-170900-
FOX VALLEY

CITY           SKY/WX    TMP DP  RH WIND       PRES   REMARKS
NWS GREEN BAY  CLOUDY    39  29  67 SE20G25   30.13F
APPLETON       NOT AVBL
OSHKOSH        CLOUDY    40  28  62 SE14      30.07F
FOND DU LAC    CLOUDY    40  28  62 SE17      30.07F
$$

WIZ022-050-052-170900-
EAST CENTRAL WISCONSIN

CITY           SKY/WX    TMP DP  RH WIND       PRES   REMARKS
STURGEON BAY   CLOUDY    37  27  65 SE17G25   30.18F
MANITOWOC      NOT AVBL
SHEBOYGAN      CLOUDY    38  29  70 SE15G25   30.15F
$$

LMZ563-521-522-541>543-170900-
LAKESHORE

STATION/POSITION TIME  TEMP    WIND        PRES    VSBY  WAVE
                       AIR SEA DIR/SP/G                  HT/PER
                 (UTC) (F)     (DEG/KT/KT) (MB)    (MI)  (FT/S)
SHEBOYGAN LKSHOR 0700   39     130/ 23/ 27 1022.0R
NORTHPORT PIER   0700   35     100/ 13/ 15 1023.7F
SISTER BAY LKSHO 0700   38     150/  9/ 15   N/A
MENOMINEE LKSHOR 0700   37     110/ 15/ 17 1022.8F
$$



USA.gov is the U.S. government's official web portal to all federal, state and local government web resources and services.